Bellaire, MI

9:54 AM EDT on April 29, 2017 (GMT -0400)
Antrim County

Weather History for KACB - March, 2014

Change the Weather History Date:

Sunday, March 9, 2014

  Actual Average (KCVX) Record (KCVX)
Temperature  
Mean Temperature 18 °F -  
Max Temperature 37 °F 52 °F 57 °F (2016)
Min Temperature -1 °F 31 °F -2 °F (2008)
Degree Days  
Heating Degree Days 47    
Moisture  
Dew Point 11 °F    
Average Humidity 67    
Maximum Humidity 90    
Minimum Humidity 38    
Precipitation  
Precipitation 0.00 in - - ()
Sea Level Pressure  
Sea Level Pressure 29.92 in    
Wind  
Wind Speed 4 mph (SSW)    
Max Wind Speed 15 mph    
Max Gust Speed 24 mph    
Visibility 10 miles    
Events      
Averages and records for this station are not official NWS values.
T = Trace of Precipitation, MM = Missing Value Source: NWS Daily Summary

Daily Weather History Graph

Daily Weather History Graph

Search for Another Location

Airport or City:

Trip Planner

Search our weather history database for the weather conditions in past years. The results will help you decide how hot, cold, wet, or windy it might be!

Date:

Astronomy

Mar. 09, 2014 Rise Set
Actual Time 8:04 AM EDT 7:38 PM EDT
Civil Twilight 7:35 AM EDT 8:08 PM EDT
Nautical Twilight 7:01 AM EDT 8:42 PM EDT
Astronomical Twilight 6:26 AM EDT 9:16 PM EDT
Moon 1:19 PM EDT (3/9) 3:40 AM EDT (3/9)
Length of Visible Light 12h 33m
Length of Day
11h 34m
First Quarter, 61% of the Moon is Illuminated
Mar 9
First Quarter
Mar 16
Full
Mar 23
Last Quarter
Mar 30
New
Apr 7
First Quarter

Hourly Weather History & Observations

Time (EDT) Temp. Windchill Dew Point Humidity Pressure Visibility Wind Dir Wind Speed Gust Speed Precip Events Conditions
12:14 AM 4.6 °F - 1.6 °F 87% 30.18 in 10.0 mi Calm Calm - N/A   Clear
12:35 AM 3.9 °F - 0.7 °F 86% 30.17 in 10.0 mi Calm Calm - N/A   Clear
12:55 AM 3.2 °F - -0.2 °F 86% 30.16 in 10.0 mi Calm Calm - N/A   Clear
1:14 AM 2.1 °F - -1.3 °F 86% 30.16 in 10.0 mi Calm Calm - N/A   Clear
1:35 AM 2.1 °F - -1.3 °F 86% 30.16 in 10.0 mi Calm Calm - N/A   Clear
1:55 AM 1.9 °F - -1.5 °F 86% 30.15 in 10.0 mi Calm Calm - N/A   Clear
3:14 AM 2.1 °F - -1.5 °F 85% 30.15 in 10.0 mi Calm Calm - N/A   Clear
3:35 AM 1.2 °F - -2.6 °F 84% 30.15 in 10.0 mi Calm Calm - N/A   Clear
3:55 AM 1.0 °F - -2.6 °F 85% 30.14 in 10.0 mi Calm Calm - N/A   Clear
4:15 AM 0.5 °F - -3.3 °F 84% 30.13 in 10.0 mi Calm Calm - N/A   Clear
4:35 AM -0.2 °F - -4.0 °F 84% 30.12 in 10.0 mi Calm Calm - N/A   Clear
4:54 AM 0.5 °F - -3.3 °F 84% 30.12 in 10.0 mi Calm Calm - N/A   Clear
5:15 AM -1.1 °F - -5.1 °F 83% 30.12 in 10.0 mi Calm Calm - N/A   Clear
5:35 AM -0.2 °F - -4.2 °F 83% 30.11 in 10.0 mi Calm Calm - N/A   Clear
5:54 AM -0.9 °F - -4.5 °F 85% 30.11 in 10.0 mi Calm Calm - N/A   Clear
6:15 AM -0.6 °F - -4.7 °F 83% 30.10 in 10.0 mi Calm Calm - N/A   Clear
6:35 AM 0.1 °F - -3.6 °F 84% 30.10 in 10.0 mi Calm Calm - N/A   Clear
6:54 AM -1.1 °F - -5.3 °F 83% 30.10 in 10.0 mi Calm Calm - N/A   Clear
7:15 AM -0.4 °F - -4.0 °F 85% 30.09 in 10.0 mi Calm Calm - N/A   Clear
7:35 AM 0.3 °F - -3.8 °F 83% 30.10 in 10.0 mi Calm Calm - N/A   Clear
7:54 AM 0.5 °F - -3.5 °F 83% 30.09 in 10.0 mi Calm Calm - N/A   Clear
8:15 AM 1.9 °F - -2.2 °F 83% 30.09 in 10.0 mi Calm Calm - N/A   Clear
8:35 AM 1.2 °F - -2.7 °F 83% 30.10 in 10.0 mi Calm Calm - N/A   Clear
8:55 AM 3.7 °F - -0.4 °F 83% 30.09 in 10.0 mi Calm Calm - N/A   Clear
9:15 AM 5.0 °F - 0.5 °F 82% 30.08 in 10.0 mi Calm Calm - N/A   Clear
9:35 AM 13.3 °F 7.3 °F 10.8 °F 90% 30.08 in 10.0 mi SW 3.5 mph - N/A   Clear
9:55 AM 16.7 °F - 13.8 °F 88% 30.07 in 10.0 mi Calm Calm - N/A   Scattered Clouds
10:15 AM 17.8 °F - 14.5 °F 87% 30.06 in 10.0 mi Calm Calm - N/A   Scattered Clouds
10:35 AM 19.9 °F 14.9 °F 16.3 °F 86% 30.06 in 10.0 mi SSW 3.5 mph - N/A   Clear
10:55 AM 22.1 °F 17.4 °F 17.4 °F 82% 30.05 in 10.0 mi SSW 3.5 mph - N/A   Scattered Clouds
11:15 AM 23.9 °F 15.0 °F 17.6 °F 77% 30.03 in 10.0 mi SSW 8.1 mph - N/A   Scattered Clouds
11:35 AM 25.3 °F 17.6 °F 17.1 °F 71% 30.03 in 10.0 mi SSW 6.9 mph - N/A   Scattered Clouds
11:55 AM 26.6 °F 19.1 °F 15.8 °F 64% 30.02 in 10.0 mi SSW 6.9 mph - N/A   Scattered Clouds
12:15 PM 27.5 °F 20.2 °F 14.4 °F 58% 30.00 in 10.0 mi SW 6.9 mph - N/A   Overcast
12:35 PM 28.4 °F 18.5 °F 14.2 °F 55% 29.99 in 10.0 mi SW 11.5 mph 16.1 mph N/A   Overcast
12:55 PM 28.9 °F 19.2 °F 13.1 °F 52% 29.97 in 10.0 mi SSW 11.5 mph 18.4 mph N/A   Mostly Cloudy
1:15 PM 29.7 °F 20.1 °F 13.1 °F 50% 29.95 in 10.0 mi SSW 11.5 mph 16.1 mph N/A   Scattered Clouds
1:35 PM 30.0 °F 23.2 °F 12.6 °F 48% 29.94 in 10.0 mi SSW 6.9 mph 16.1 mph N/A   Mostly Cloudy
1:55 PM 30.6 °F 21.2 °F 12.2 °F 47% 29.92 in 10.0 mi SSW 11.5 mph 19.6 mph N/A   Overcast
2:15 PM 31.6 °F 24.4 °F 12.9 °F 46% 29.92 in 10.0 mi SW 8.1 mph - N/A   Mostly Cloudy
2:35 PM 32.2 °F 25.8 °F 13.8 °F 47% 29.90 in 10.0 mi SW 6.9 mph 16.1 mph N/A   Scattered Clouds
2:55 PM 33.1 °F 25.5 °F 14.7 °F 47% 29.87 in 10.0 mi SSW 9.2 mph - N/A   Mostly Cloudy
3:15 PM 33.4 °F 25.4 °F 15.4 °F 48% 29.85 in 10.0 mi SSW 10.4 mph 18.4 mph N/A   Mostly Cloudy
3:35 PM 34.7 °F 25.5 °F 15.4 °F 45% 29.83 in 10.0 mi SW 13.8 mph 24.2 mph N/A   Overcast
3:55 PM 35.2 °F 27.6 °F 15.1 °F 44% 29.82 in 10.0 mi SW 10.4 mph 17.3 mph N/A   Overcast
4:15 PM 35.6 °F 27.1 °F 14.5 °F 42% 29.81 in 10.0 mi SSW 12.7 mph 19.6 mph N/A   Overcast
4:35 PM 36.0 °F 29.0 °F 13.6 °F 40% 29.78 in 10.0 mi SSW 9.2 mph 18.4 mph N/A   Overcast
4:55 PM 36.3 °F 28.4 °F 14.7 °F 41% 29.76 in 10.0 mi SSW 11.5 mph 16.1 mph N/A   Overcast
5:15 PM 37.4 °F 29.8 °F 14.4 °F 39% 29.75 in 10.0 mi SSW 11.5 mph 17.3 mph N/A   Overcast
5:35 PM 37.0 °F 29.8 °F 13.5 °F 38% 29.73 in 10.0 mi SSW 10.4 mph 18.4 mph N/A   Overcast
5:55 PM 37.0 °F 28.9 °F 14.4 °F 40% 29.71 in 10.0 mi South 12.7 mph 17.3 mph N/A   Overcast
6:15 PM 37.4 °F 29.8 °F 14.5 °F 39% 29.70 in 10.0 mi SSW 11.5 mph 21.9 mph N/A   Overcast
6:35 PM 37.4 °F 28.5 °F 14.9 °F 40% 29.68 in 10.0 mi SSW 15.0 mph 20.7 mph N/A   Overcast
6:55 PM 37.4 °F 32.1 °F 14.9 °F 40% 29.68 in 10.0 mi SSW 6.9 mph 19.6 mph N/A   Overcast
7:16 PM 36.7 °F 28.9 °F 15.8 °F 43% 29.68 in 10.0 mi SW 11.5 mph 20.7 mph N/A   Overcast
7:35 PM 36.5 °F 27.8 °F 18.1 °F 47% 29.68 in 10.0 mi SW 13.8 mph 21.9 mph N/A   Overcast
7:55 PM 36.1 °F 26.9 °F 19.6 °F 51% 29.68 in 10.0 mi SW 15.0 mph 24.2 mph N/A   Overcast
8:16 PM 36.0 °F 28.0 °F 20.7 °F 54% 29.69 in 10.0 mi SW 11.5 mph 18.4 mph N/A   Overcast
8:35 PM 36.0 °F 27.1 °F 21.6 °F 56% 29.70 in 10.0 mi SW 13.8 mph 21.9 mph N/A   Mostly Cloudy
8:55 PM 35.8 °F 27.8 °F 22.5 °F 58% 29.70 in 10.0 mi SW 11.5 mph 20.7 mph N/A   Mostly Cloudy
9:15 PM 35.6 °F 28.0 °F 23.0 °F 60% 29.70 in 10.0 mi SW 10.4 mph 20.7 mph N/A   Mostly Cloudy
9:35 PM 35.1 °F 28.6 °F 23.4 °F 62% 29.70 in 10.0 mi SW 8.1 mph 16.1 mph N/A   Mostly Cloudy
9:55 PM 35.1 °F 27.9 °F 23.7 °F 63% 29.70 in 10.0 mi SW 9.2 mph 18.4 mph N/A   Mostly Cloudy
10:15 PM 34.9 °F 27.7 °F 24.1 °F 65% 29.70 in 10.0 mi SSW 9.2 mph 17.3 mph N/A   Mostly Cloudy
10:35 PM 35.1 °F 29.3 °F 24.8 °F 66% 29.70 in 10.0 mi SSW 6.9 mph - N/A   Overcast
10:55 PM 35.1 °F 29.3 °F 25.2 °F 67% 29.70 in 10.0 mi SSW 6.9 mph - N/A   Scattered Clouds
11:15 PM 35.4 °F 29.0 °F 25.7 °F 68% 29.70 in 10.0 mi SW 8.1 mph - N/A   Mostly Cloudy
11:36 PM 35.6 °F 28.6 °F 26.2 °F 69% 29.69 in 10.0 mi South 9.2 mph - N/A   Overcast
11:55 PM 35.6 °F 30.7 °F 26.4 °F 69% 29.69 in 10.0 mi SSW 5.8 mph - N/A   Overcast
12:14 AM 35.1 °F 28.6 °F 26.6 °F 71% 29.68 in 10.0 mi SSW 8.1 mph - N/A   Scattered Clouds
12:35 AM 35.1 °F 29.3 °F 26.8 °F 72% 29.67 in 10.0 mi SSW 6.9 mph - N/A   Mostly Cloudy
12:55 AM 34.9 °F 32.0 °F 27.0 °F 73% 29.67 in 10.0 mi SSW 3.5 mph - N/A   Scattered Clouds